BREEZE-M DEB (TANK), 41583

Orbit data source: Space-Track

BREEZE-M DEB (TANK), 41583 is space debris in HEO originally from a launch on Thu, 09 Jun 2016 UTC launched from the Tyuratam Missile And Space Complex (TTMTR). Debris objects in space refer to the collection of defunct objects orbiting the Earth. Examples of debris include non-operational satellites, rocket bodies, and fragments generated from explosions, collisions, or faulty payload assembly.

Loading next visibility...
Identifier
41583, 2016-035C
Orbit
HEO
Country
Flag of CISCIS
Related business
Manufacturer
Khrunichev
Mission
Spacecraft
Bus & Motor
BRIZ TANK, Unknown motor
Mass
~1,000 kg wet, 1,000 kg dry
Launch date (UTC)
2016-06-09 (9 years ago)
Launch vehicle
Unknown
Launch site
Tyuratam Missile And Space Complex (TTMTR)
Object type
Payload
Rocket body
Debris
Shape & HBR
Torus, 2.0 m
Radar Cross Section
8.218 m², Large (>1 m²)

Expand to show TLE details & history
Last TLE update: 13 hours ago

TLE from 13 hours ago
0 BREEZE-M DEB (TANK)
1 41583U 16035C   25308.64705686  .00001574  00000-0  73258-3 0  9991
2 41583  50.7706 117.1666 4975691 205.7513 117.5850  5.55962263189367
Epoch: 2025-11-04T15:31Z
TLE epoch observation values (Epoch: 2025-11-04T15:31:45.712Z)
Latitude
0.00004°
Longitude
-159.91845°
Altitude
11,977.346 km
Speed
3.718 km/s
True Right ascension
07h 48m 36s
True Declination
0° 00' 00"
Sunlit
Object was in daylight at epoch
Visualization orbit readout
Latitude
Unknown
Longitude
Unknown
Altitude
Unknown
Speed
Unknown
Apparent Right ascension
Unknown
Apparent Declination
Unknown
Sunlit
N/A
Visualization observer readout
Local Sidereal Time
00:12:03
Azimuth
Unknown
Elevation
Unknown
Doppler factor
Unknown
Orbital elements
Apogee altitude
13,779.592 km
Perigee altitude
384.734 km
Semi-major axis
13,460.3 km
Eccentricity
0.49757
Inclination
50.7706°
RAAN
117.1666°
Arg. of periapsis
205.7513°
True anomaly
154.30762°
Mean anomaly
117.585°
Eccentric anomaly
137.0204°
Mean motion
1.38983 °/min
Orbital period
259.02 mins
BSTAR
0.00073258
Loading maneuver chart data...
Computing Atmospheric mass density...
Loading historical data...
Loading historical data...
Loading historical data...
Loading historical data...
Loading historical data...
Loading historical data...
Loading historical data...
Other satellites on launch #35 in the year 2016 (2016-06-09 UTC)

Documentation

Showing up to 5 results
|